User: anonymous   Login
Location: Helensbirgh
(56.0153°N, 4.7348°W)
Time: 01:04:00
(UTC+00:00)
Language:

Hubble Space Telescope - Orbit

View from above orbital plane
View from above orbital plane
View from above satellite
View from above satellite

Ground track
Ground track

The orbit data is extracted from the following two-line orbital elements,

1 20580U 90037B   19325.86593576  .00000466  00000-0  17433-4 0  9991
2 20580  28.4694 259.1912 0002671  11.1458  26.0224 15.09302102424509
Epoch (UTC): 21 November 2019 20:46:56
Eccentricity: 0.0002671
inclination: 28.4694°
perigee height: 536 km
apogee height: 540 km
right ascension of ascending node: 259.1912°
argument of perigee: 11.1458°
revolutions per day: 15.09302102
mean anomaly at epoch: 26.0224°
orbit number at epoch: 42450

The dashed part of the orbit path shows where the satellite is in the earth's shadow,  

DLR